Weather History for Houghton Lake, MI

Change the Weather History Date:

Monday, October 7, 2013

  Actual Average Record
Temperature  
Mean Temperature 50 °F 49 °F  
Max Temperature 58 °F 60 °F 87 °F (1947)
Min Temperature 41 °F 39 °F 18 °F (1923)
Degree Days  
Heating Degree Days 15 16  
Month to date heating degree days 54 105  
Since 1 July heating degree days 441 486  
Cooling Degree Days 0 0  
Month to date cooling degree days 0 0  
Year to date cooling degree days 381 285  
Moisture  
Dew Point 45 °F    
Average Humidity 79    
Maximum Humidity 100    
Minimum Humidity 57    
Precipitation  
Precipitation 0.07 in 0.09 in 1.82 in (1933)
Month to date precipitation 1.38 0.63  
Year to date precipitation 23.29 22.85  
Snow  
Snow 0.00 in 0.00 in - ()
Month to date snowfall 0.0 0.0  
Since 1 July snowfall 0.0 0.0  
Snow Depth 0.00 in    
Sea Level Pressure  
Sea Level Pressure 29.77 in    
Wind  
Wind Speed 9 mph (West)    
Max Wind Speed 21 mph    
Max Gust Speed 28 mph    
Visibility 9 miles    
Events Rain    
T = Trace of Precipitation, MM = Missing Value Source: NWS Daily Summary

Daily Weather History Graph

Daily Weather History Graph

Search for Another Location

Airport:

Trip Planner

Search our weather history database for the weather conditions in past years. The results will help you decide how hot, cold, wet, or windy it might be!

Date:

Astronomy

Oct. 07, 2013 Rise Set
Actual Time 7:44 AM EDT 7:08 PM EDT
Civil Twilight 7:15 AM EDT 7:37 PM EDT
Nautical Twilight 6:41 AM EDT 8:10 PM EDT
Astronomical Twilight 6:07 AM EDT 8:44 PM EDT
Moon 10:40 AM EDT (10/7) 8:44 PM EDT (10/7)
Length of Visible Light 12h 22m
Length of Day
11h 24m
Waxing Crescent, 8% of the Moon is Illuminated
Oct 7
Waxing Crescent
Oct 11
First Quarter
Oct 18
Full
Oct 26
Last Quarter
Nov 3
New

Hourly Weather History & Observations

Time (EDT) Temp. Dew Point Humidity Pressure Visibility Wind Dir Wind Speed Gust Speed Precip Events Conditions
12:53 AM 51.1 °F 45.0 °F 80% 29.65 in 10.0 mi WSW 9.2 mph - N/A   Clear
1:53 AM 50.0 °F 45.0 °F 83% 29.65 in 10.0 mi SW 8.1 mph - N/A   Clear
2:53 AM 50.0 °F 45.0 °F 83% 29.64 in 10.0 mi SW 9.2 mph - N/A   Mostly Cloudy
3:53 AM 51.1 °F 46.0 °F 83% 29.63 in 10.0 mi WSW 11.5 mph - N/A   Overcast
4:53 AM 51.1 °F 46.9 °F 86% 29.63 in 10.0 mi WSW 12.7 mph - 0.00 in   Overcast
5:53 AM 48.9 °F 46.9 °F 93% 29.63 in 10.0 mi SSW 9.2 mph - N/A   Overcast
6:53 AM 50.0 °F 46.9 °F 89% 29.63 in 10.0 mi South 8.1 mph - N/A   Overcast
7:23 AM 50.0 °F 46.4 °F 87% 29.64 in 10.0 mi WSW 8.1 mph - N/A   Overcast
7:34 AM 50.0 °F 46.4 °F 87% 29.64 in 10.0 mi WSW 10.4 mph - N/A   Overcast
7:53 AM 50.0 °F 46.9 °F 89% 29.65 in 10.0 mi WSW 12.7 mph 19.6 mph N/A   Overcast
8:19 AM 50.0 °F 46.4 °F 87% 29.64 in 10.0 mi SW 11.5 mph - N/A   Mostly Cloudy
8:53 AM 50.0 °F 46.9 °F 89% 29.66 in 10.0 mi WSW 10.4 mph 18.4 mph N/A   Overcast
9:30 AM 50.0 °F 46.4 °F 87% 29.66 in 10.0 mi WSW 11.5 mph 20.7 mph 0.01 in Rain Light Rain
9:53 AM 50.0 °F 46.0 °F 86% 29.68 in 10.0 mi WSW 10.4 mph - 0.01 in   Overcast
10:09 AM 50.0 °F 46.4 °F 87% 29.68 in 10.0 mi West 10.4 mph - N/A   Overcast
10:45 AM 50.0 °F 48.2 °F 94% 29.69 in 2.5 mi NNW 8.1 mph - 0.01 in Rain Light Rain
10:53 AM 50.0 °F 48.0 °F 93% 29.70 in 4.0 mi NNW 8.1 mph - 0.02 in Rain Light Rain
11:08 AM 50.0 °F 46.4 °F 87% 29.70 in 8.0 mi NNW 15.0 mph 21.9 mph 0.01 in Rain Light Rain
11:53 AM 48.9 °F 46.0 °F 90% 29.74 in 10.0 mi NNW 10.4 mph - 0.04 in Rain Light Rain
12:43 PM 51.8 °F 46.4 °F 82% 29.74 in 10.0 mi NW 10.4 mph - N/A   Overcast
12:53 PM 52.0 °F 46.0 °F 80% 29.76 in 10.0 mi NW 12.7 mph - N/A   Overcast
1:09 PM 51.8 °F 44.6 °F 76% 29.75 in 10.0 mi NW 12.7 mph - N/A   Mostly Cloudy
1:53 PM 55.9 °F 45.0 °F 67% 29.77 in 10.0 mi WNW 17.3 mph 25.3 mph N/A   Scattered Clouds
2:53 PM 57.9 °F 42.1 °F 56% 29.80 in 10.0 mi NW 12.7 mph 24.2 mph N/A   Mostly Cloudy
3:53 PM 55.9 °F 43.0 °F 62% 29.84 in 10.0 mi WNW 18.4 mph 27.6 mph 0.00 in   Mostly Cloudy
4:53 PM 57.0 °F 46.0 °F 67% 29.87 in 10.0 mi NW 10.4 mph - 0.00 in   Overcast
5:53 PM 55.0 °F 43.0 °F 64% 29.91 in 10.0 mi NW 12.7 mph 24.2 mph N/A   Partly Cloudy
6:53 PM 54.0 °F 44.1 °F 69% 29.94 in 10.0 mi WNW 9.2 mph - N/A   Mostly Cloudy
7:53 PM 53.1 °F 45.0 °F 74% 29.97 in 10.0 mi WNW 5.8 mph - N/A   Clear
8:53 PM 53.1 °F 46.0 °F 77% 30.00 in 10.0 mi WNW 5.8 mph - N/A   Mostly Cloudy
9:53 PM 48.9 °F 44.1 °F 83% 30.04 in 10.0 mi Calm Calm - N/A   Mostly Cloudy
10:53 PM 45.0 °F 43.0 °F 93% 30.07 in 10.0 mi Calm Calm - N/A   Scattered Clouds
11:45 PM 42.8 °F 41.0 °F 93% 30.08 in 1.8 mi Calm Calm - N/A   Scattered Clouds
11:53 PM 41.0 °F 41.0 °F 100% 30.11 in 1.0 mi Calm Calm - N/A   Mostly Cloudy